,

(GMT )
Lytton

Weather History for CWLY - September, 2012

Change the Weather History Date:

Monday, September 17, 2012

  Actual Average Record
Temperature  
Mean Temperature 66 °F -  
Max Temperature 87 °F 70 °F 87 °F (2012)
Min Temperature 45 °F 48 °F 41 °F (2003)
Cooling Degree Days 1    
Growing Degree Days 16 (Base 50)    
Moisture  
Dew Point 37 °F    
Average Humidity 43    
Maximum Humidity 76    
Minimum Humidity 9    
Precipitation  
Precipitation 0.02 in - - ()
Sea Level Pressure  
Sea Level Pressure 30.14 in    
Wind  
Wind Speed 1 mph ()    
Max Wind Speed 7 mph    
Max Gust Speed -    
Visibility 9.0 miles    
Events      
Averages and records for this station are not official NWS values.
T = Trace of Precipitation, MM = Missing Value Source: Averaged Metar Reports

Daily Weather History Graph

Daily Weather History Graph

Search for Another Location

Airport or City:

Trip Planner

Search our weather history database for the weather conditions in past years. The results will help you decide how hot, cold, wet, or windy it might be!

Date:

Astronomy

Sep. 17, 2012 Rise Set
Actual Time 6:46 AM PDT 7:14 PM PDT
Civil Twilight 6:13 AM PDT 7:46 PM PDT
Nautical Twilight 5:34 AM PDT 8:25 PM PDT
Astronomical Twilight 4:53 AM PDT 9:05 PM PDT
Moon 8:59 AM PDT (9/17) 7:38 PM PDT (9/17)
Length of Visible Light 13h 33m
Length of Day
12h 28m
Waxing Crescent, 4% of the Moon is Illuminated
Sep 17
Waxing Crescent
Sep 22
First Quarter
Sep 29
Full
Oct 8
Last Quarter
Oct 15
New

Hourly Weather History & Observations

Time (PDT) Temp. Dew Point Humidity Pressure Visibility Wind Dir Wind Speed Gust Speed Precip Events Conditions
12:00 AM 55.4 °F 39.2 °F 54% 30.22 in 9.0 mi Calm Calm - N/A   Clear
1:00 AM 53.6 °F 35.6 °F 51% 30.22 in 9.0 mi Calm Calm - N/A   Clear
2:00 AM 52 °F 40 °F 52% 30.23 in 9 mi Calm Calm - -  
2:00 AM 51.8 °F 39.2 °F 62% 30.23 in 9.0 mi Calm Calm - N/A   Clear
3:00 AM 50.0 °F 41.0 °F 71% 30.24 in 9.0 mi Calm Calm - N/A   Clear
4:00 AM 50.0 °F 39.2 °F 66% 30.25 in 9.0 mi Calm Calm - N/A   Clear
5:00 AM 48 °F 38 °F 58% 30.25 in 9 mi North 2.3 mph - -  
5:00 AM 48.2 °F 37.4 °F 66% 30.25 in 9.0 mi NE 2.3 mph - N/A   Clear
6:00 AM 46.4 °F 37.4 °F 71% 30.25 in 9.0 mi Calm Calm - N/A   Clear
7:00 AM 46.4 °F 39.2 °F 76% 30.27 in 9.0 mi Calm Calm - N/A   Clear
8:00 AM 46 °F 38 °F 65% 30.28 in 9 mi Calm Calm - -  
8:00 AM 46.4 °F 37.4 °F 71% 30.28 in 9.0 mi Calm Calm - N/A   Clear
9:00 AM 48.2 °F 39.2 °F 71% 30.28 in 9.0 mi South 2.3 mph - N/A   Clear
10:00 AM 57.2 °F 37.4 °F 48% 30.25 in 9.0 mi North 2.3 mph - N/A   Clear
11:00 AM 64 °F 37 °F 25% 30.22 in 9 mi North 2.3 mph - -  
12:00 PM 71.6 °F 37.4 °F 29% 30.18 in 9.0 mi Calm Calm - N/A   Clear
1:00 PM 73.4 °F 37.4 °F 27% 30.14 in 9.0 mi North 2.3 mph - N/A   Clear
2:00 PM 81 °F 36 °F 11% 30.10 in 9 mi SW 2.3 mph - -  
2:00 PM 80.6 °F 35.6 °F 20% 30.10 in 9.0 mi SSW 2.3 mph - N/A   Clear
3:00 PM 84.2 °F 37.4 °F 19% 30.05 in 9.0 mi SSW 2.3 mph - N/A   Clear
4:00 PM 87.8 °F 37.4 °F 17% 30.02 in 9.0 mi South 6.9 mph - N/A   Clear
5:00 PM 85 °F 36 °F 9% 30.00 in 9 mi SSW 3.5 mph - -  
5:00 PM 86.0 °F 35.6 °F 17% 30.00 in 9.0 mi SSW 3.5 mph - N/A   Clear
6:00 PM 78.8 °F 33.8 °F 20% 29.99 in 9.0 mi SSE 4.6 mph - N/A   Clear
7:00 PM 71.6 °F 35.6 °F 27% 30.00 in 9.0 mi SE 5.8 mph - N/A   Clear
8:00 PM 67 °F 36 °F 20% 30.01 in 9 mi Calm Calm - -  
8:00 PM 68.0 °F 35.6 °F 30% 30.01 in 9.0 mi Calm Calm - N/A   Clear
9:00 PM 64.4 °F 35.6 °F 34% 30.03 in 9.0 mi SSE 4.6 mph - N/A   Clear
10:00 PM 60.8 °F 35.6 °F 39% 30.04 in 9.0 mi Calm Calm - N/A   Clear
11:00 PM 57 °F 40 °F 41% 30.05 in 9 mi Calm Calm - -  
11:00 PM 57.2 °F 39.2 °F 51% 30.05 in 9.0 mi Calm Calm - N/A   Clear